Regional Weather Roundup
Issued by NWS

Home | Current Version | Previous Version | Graphics & Text | Print | Product List | Glossary On
Versions: 1 2 3 4 5 6 7 8 9 10 11 12 13 14 15 16 17 18 19 20 21 22 23 24 25 26 27 28 29 30 31 32 33 34 35 36 37 38 39 40 41 42 43 44 45 46 47 48 49 50
000
ASUS43 KOAX 251502
RWRNE

WEATHER ROUNDUP FOR NEBRASKA
NATIONAL WEATHER SERVICE OMAHA NE
1000 AM CDT SUN JUN 25 2017

NOTES: SATELLITE DATA IS BEING USED TO AUGMENT CLOUD COVER ABOVE
       12000 FEET.
       "FAIR" INDICATES FEW OR NO CLOUDS BELOW 12,000 FEET WITH NO
       SIGNIFICANT WEATHER AND/OR OBSTRUCTIONS TO VISIBILITY.

  * THESE STATIONS DO NOT REPORT WEATHER SUCH AS RAIN...SNOW OR FOG.

NEZ001>004-019>022-054>056-251600-
NEBRASKA PANHANDLE

CITY           SKY/WX    TMP DP  RH WIND       PRES   REMARKS
SCOTTSBLUFF    CLOUDY    65  37  35 S12       30.36F
ALLIANCE       CLOUDY    58  41  53 SE5       30.37R
CHADRON        SUNNY     65  37  35 S6        30.35S
GORDON         FAIR      63  37  38 SE7       30.36F
KIMBALL        CLOUDY    59  38  45 E17       30.40S
SIDNEY         PTSUNNY   63  34  33 SE22      30.39S
$$

NEZ057>060-069>072-079>082-251600-
SOUTHWEST NEBRASKA

CITY           SKY/WX    TMP DP  RH WIND       PRES   REMARKS
NORTH PLATTE   CLOUDY    61  46  57 SE8       30.38F
IMPERIAL       CLOUDY    55  44  66 SE13      30.39S
LEXINGTON      LGT RAIN  57  47  69 S5        30.38F
MCCOOK         CLOUDY    57  45  64 SE7       30.39S
OGALLALA       CLOUDY    62  40  43 E9        30.38S
$$

NEZ005>010-023>029-035>040-094-251600-
NORTH CENTRAL NEBRASKA

CITY           SKY/WX    TMP DP  RH WIND       PRES   REMARKS
VALENTINE      SUNNY     67  31  26 CALM      30.36F
AINSWORTH      SUNNY     63  37  37 CALM      30.37S
BROKEN BOW     CLOUDY    64  43  46 CALM      30.37S
O`NEILL        SUNNY     64  39  39 NW12G18   30.35F
ORD            PTSUNNY   64  40  41 VRB5      30.36S
THEDFORD       CLOUDY    66  37  33 E5        30.38F
$$

NEZ041-046>049-061>064-073>077-083>087-251600-
SOUTH CENTRAL NEBRASKA

CITY           SKY/WX    TMP DP  RH WIND       PRES   REMARKS
GRAND ISLAND   CLOUDY    62  45  53 CALM      30.38S
AURORA         CLOUDY    63  45  51 CALM      30.37S
HASTINGS       PTSUNNY   59  45  59 CALM      30.39R
HEBRON         CLOUDY    62  48  60 CALM      30.36S
HOLDREGE       LGT RAIN  55  48  77 N7        30.40R
KEARNEY *      CLOUDY    55  43  62 CALM      30.39R
YORK           CLOUDY    63  45  51 CALM      30.36S
$$

NEZ011>018-030>034-042>045-251600-
NORTHEAST NEBRASKA

CITY           SKY/WX    TMP DP  RH WIND       PRES   REMARKS
NORFOLK        SUNNY     63  42  46 NW12      30.33S
ALBION         SUNNY     66  39  36 NW9       30.36R
BLAIR          SUNNY     64  45  49 N13       30.32S
FREMONT        SUNNY     65  42  43 NW10      30.34S
TEKAMAH        SUNNY     66  42  41 N17       30.32S
WAYNE          SUNNY     63  43  47 NW15      30.33S
$$

NEZ050>053-065>068-078-088>093-251600-
SOUTHEAST NEBRASKA

CITY           SKY/WX    TMP DP  RH WIND       PRES   REMARKS
LINCOLN        MOSUNNY   69  46  43 NW8       30.35S
OMAHA EPPLEY   MOSUNNY   66  44  45 NW14      30.33R
BEATRICE       MOSUNNY   66  46  46 NE5       30.34S
FALLS CITY     MOSUNNY   66  48  52 N7        30.32S
NEBRASKA CITY  MOSUNNY   66  46  48 NW7       30.33S
PLATTSMOUTH    SUNNY     65  43  44 NW8       30.33S
$$

NEZ044-045-051>053-067-251600-
OMAHA AREA

CITY           SKY/WX    TMP DP  RH WIND       PRES   REMARKS
OMAHA EPPLEY   MOSUNNY   66  44  45 NW14      30.33R
BLAIR          SUNNY     64  45  49 N13       30.32S
FREMONT        SUNNY     65  42  43 NW10      30.34S
MILLARD        SUNNY     67  44  42 N8        30.33S
OFFUTT AFB     SUNNY     67  42  41 NW8       30.32R
PLATTSMOUTH    SUNNY     65  43  44 NW8       30.33S
WAHOO          FAIR      66  39  37 NW12G17   30.34S
$$




USA.gov is the U.S. government's official web portal to all federal, state and local government web resources and services.